Location: Complexul Astronomic Baia Mare
(47.6577°N, 23.5639°E)
Time: 05:52:59
(UTC+03:00)

ISS - Pass Details

Date: 18 March 2017
Orbit: 399 x 409 km, 51.6° (Epoch: 30 March)

Event Time Altitude Azimuth Distance (km) Brightness Sun altitude
Exits shadow 05:00:57 28° 305° (NW) 812 -2.7 -16.1°
Maximum altitude 05:02:31 63° 18° (NNE) 462 -3.5 -15.9°
Drops below altitude 10° 05:05:48 10° 101° (E) 1,476 0.0 -15.3°
Sets 05:07:54 0° 105° (ESE) 2,335 1.1 -15.0°
